Estación de Linares 2
Ultimos registro cada 15 minutos 96
| N° | Estación | Fecha / Hora | Temperatura | Humedad | Lluvia | Velocidad | Dirección | Radiación | Presion |
| 96 | Linares 2 | 31-08-2026 23:45 | 9,9 | 86 | 0 | 0 | 244 | 0 | 1014 |
| 95 | Linares 2 | 31-08-2026 23:30 | 10 | 87 | 0 | 0 | 87 | 0 | 1014,4 |
| 94 | Linares 2 | 31-08-2026 23:15 | 10 | 86 | 0 | 0 | 87 | 0 | 1014,5 |
| 93 | Linares 2 | 31-08-2026 23:00 | 10 | 86 | 0 | 0 | 87 | 0 | 1014,6 |
| 92 | Linares 2 | 31-08-2026 22:45 | 10 | 87 | 0 | 0 | 244 | 0 | 1014,9 |
| 91 | Linares 2 | 31-08-2026 22:30 | 9,8 | 87 | 0 | 0 | 244 | 0 | 1015,2 |
| 90 | Linares 2 | 31-08-2026 22:15 | 10,2 | 86 | 0 | 0 | 87 | 0 | 1015,2 |
| 89 | Linares 2 | 31-08-2026 22:00 | 10,4 | 86 | 0 | 0 | 92 | 0 | 1015,3 |
| 88 | Linares 2 | 31-08-2026 21:45 | 10,6 | 85 | 0 | 0 | 150 | 0 | 1015,2 |
| 87 | Linares 2 | 31-08-2026 21:30 | 10,5 | 86 | 0 | 0 | 172 | 0 | 1015,1 |
| 86 | Linares 2 | 31-08-2026 21:15 | 10,7 | 85 | 0 | 0 | 246 | 0 | 1014,9 |
| 85 | Linares 2 | 31-08-2026 21:00 | 10,8 | 84 | 0 | 0 | 246 | 0 | 1014,8 |
| 84 | Linares 2 | 31-08-2026 20:45 | 11,2 | 83 | 0 | 0 | 89 | 0 | 1014,7 |
| 83 | Linares 2 | 31-08-2026 20:30 | 11,5 | 81 | 0 | 0 | 89 | 0 | 1014,5 |
| 82 | Linares 2 | 31-08-2026 20:15 | 12,2 | 79 | 0 | 0 | 89 | 0 | 1014,5 |
| 81 | Linares 2 | 31-08-2026 20:00 | 12,3 | 79 | 0 | 0 | 246 | 0 | 1014,4 |
| 80 | Linares 2 | 31-08-2026 19:45 | 12,6 | 78 | 0 | 0 | 75 | 0 | 1014,3 |
| 79 | Linares 2 | 31-08-2026 19:30 | 13,3 | 74 | 0 | 0 | 68 | 0 | 1014,3 |
| 78 | Linares 2 | 31-08-2026 19:15 | 13,7 | 73 | 0 | 0 | 54 | 0 | 1014,4 |
| 77 | Linares 2 | 31-08-2026 19:00 | 6,7 | 41 | 0 | 0 | 45 | 0 | 1014,2 |
| 76 | Linares 2 | 31-08-2026 18:45 | 15 | 71 | 0 | 0 | 45 | 0 | 1014,3 |
| 75 | Linares 2 | 31-08-2026 18:30 | 15,9 | 65 | 0 | 0 | 45 | 4 | 1014,3 |
| 74 | Linares 2 | 31-08-2026 18:15 | 17,8 | 55 | 0 | 0 | 45 | 13 | 1014,4 |
| 73 | Linares 2 | 31-08-2026 18:00 | 19,3 | 51 | 0 | 0 | 205 | 46 | 1014,4 |
| 72 | Linares 2 | 31-08-2026 17:45 | 19,6 | 49 | 0 | 0,8 | 177 | 96 | 1014,4 |
| 71 | Linares 2 | 31-08-2026 17:30 | 19,8 | 48 | 0 | 1,6 | 334 | 144 | 1014,6 |
| 70 | Linares 2 | 31-08-2026 17:15 | 19,4 | 48 | 0 | 2,7 | 163 | 197 | 1014,3 |
| 69 | Linares 2 | 31-08-2026 17:00 | 19,9 | 46 | 0 | 3,2 | 166 | 245 | 1014,3 |
| 68 | Linares 2 | 31-08-2026 16:45 | 20 | 47 | 0 | 1,6 | 169 | 288 | 1014,3 |
| 67 | Linares 2 | 31-08-2026 16:30 | 10,1 | 23 | 0 | 0,3 | 5 | 169 | 1014,3 |
| 66 | Linares 2 | 31-08-2026 16:15 | 20 | 48 | 0 | 1,9 | 161 | 402 | 1014,3 |
| 65 | Linares 2 | 31-08-2026 16:00 | 20 | 47 | 0 | 4 | 172 | 425 | 1014,3 |
| 64 | Linares 2 | 31-08-2026 15:45 | 19,9 | 49 | 0 | 2,4 | 331 | 470 | 1014,4 |
| 63 | Linares 2 | 31-08-2026 15:30 | 20,1 | 49 | 0 | 2,4 | 194 | 507 | 1014,4 |
| 62 | Linares 2 | 31-08-2026 15:15 | 19,4 | 51 | 0 | 3,5 | 163 | 536 | 1014,4 |
| 61 | Linares 2 | 31-08-2026 15:00 | 19,9 | 48 | 0 | 3,5 | 172 | 569 | 1014,7 |
| 60 | Linares 2 | 31-08-2026 14:45 | 19,7 | 50 | 0 | 2,7 | 163 | 600 | 1014,8 |
| 59 | Linares 2 | 31-08-2026 14:30 | 19,5 | 52 | 0 | 3,2 | 326 | 639 | 1014,9 |
| 58 | Linares 2 | 31-08-2026 14:15 | 19,6 | 51 | 0 | 4,3 | 150 | 590 | 1015,3 |
| 57 | Linares 2 | 31-08-2026 14:00 | 19,2 | 52 | 0 | 4,3 | 173 | 524 | 1015,5 |
| 56 | Linares 2 | 31-08-2026 13:45 | 19 | 52 | 0 | 2,1 | 346 | 675 | 1015,6 |
| 55 | Linares 2 | 31-08-2026 13:30 | 19,4 | 52 | 0 | 1,6 | 198 | 695 | 1015,6 |
| 54 | Linares 2 | 31-08-2026 13:15 | 19,2 | 55 | 0 | 1,6 | 186 | 728 | 1015,8 |
| 53 | Linares 2 | 31-08-2026 13:00 | 18,4 | 56 | 0 | 3,5 | 184 | 532 | 1016 |
| 52 | Linares 2 | 31-08-2026 12:45 | 18,4 | 58 | 0 | 4,3 | 180 | 601 | 1016 |
| 51 | Linares 2 | 31-08-2026 12:30 | 18,5 | 61 | 0 | 3,2 | 200 | 749 | 1016 |
| 50 | Linares 2 | 31-08-2026 12:15 | 17,9 | 62 | 0 | 4,3 | 188 | 749 | 1016,3 |
| 49 | Linares 2 | 31-08-2026 12:00 | 9,2 | 31 | 0 | 0 | 40 | 396 | 1016,3 |
| 48 | Linares 2 | 31-08-2026 11:45 | 8,4 | 31 | 0 | 0,3 | 59 | 219 | 1016,4 |
| 47 | Linares 2 | 31-08-2026 11:30 | 8,2 | 31 | 0 | 0,3 | 61 | 152 | 1016,5 |
| 46 | Linares 2 | 31-08-2026 11:15 | 8,3 | 34 | 0 | 0,3 | 60 | 172 | 1016,5 |
| 45 | Linares 2 | 31-08-2026 11:00 | 9,1 | 32 | 0 | 0 | 36 | 232 | 1016,5 |
| 44 | Linares 2 | 31-08-2026 10:45 | 8 | 35 | 0 | 0 | 50 | 128 | 1016,5 |
| 43 | Linares 2 | 31-08-2026 10:30 | 8,2 | 34 | 0 | 0 | 50 | 167 | 1016,4 |
| 42 | Linares 2 | 31-08-2026 10:15 | 8 | 35 | 0 | 0 | 47 | 218 | 1016,4 |
| 41 | Linares 2 | 31-08-2026 10:00 | 7,9 | 35 | 0 | 0 | 61 | 211 | 1016,3 |
| 40 | Linares 2 | 31-08-2026 09:45 | 7,6 | 36 | 0 | 0,3 | 70 | 229 | 1016,2 |
| 39 | Linares 2 | 31-08-2026 09:30 | 6,9 | 40 | 0 | 0,3 | 77 | 90 | 1016,3 |
| 38 | Linares 2 | 31-08-2026 09:15 | 6,2 | 43 | 0 | 0 | 85 | 100 | 1016,2 |
| 37 | Linares 2 | 31-08-2026 09:00 | 11 | 87 | 0 | 0 | 86 | 128 | 1016,3 |
| 36 | Linares 2 | 31-08-2026 08:45 | 10,6 | 87 | 0 | 0 | 86 | 111 | 1016,1 |
| 35 | Linares 2 | 31-08-2026 08:30 | 10,1 | 88 | 0 | 0 | 86 | 79 | 1016 |
| 34 | Linares 2 | 31-08-2026 08:15 | 9,7 | 88 | 0 | 0 | 86 | 47 | 1015,8 |
| 33 | Linares 2 | 31-08-2026 08:00 | 9,4 | 89 | 0 | 0,3 | 82 | 29 | 1015,7 |
| 32 | Linares 2 | 31-08-2026 07:45 | 9,2 | 89 | 0 | 0,3 | 82 | 22 | 1015,2 |
| 31 | Linares 2 | 31-08-2026 07:30 | 8,9 | 90 | 0 | 0,3 | 82 | 16 | 1015 |
| 30 | Linares 2 | 31-08-2026 07:15 | 8,8 | 90 | 0 | 0 | 82 | 1 | 1014,8 |
| 29 | Linares 2 | 31-08-2026 07:00 | 9 | 89 | 0 | 0 | 77 | 0 | 1014,7 |
| 28 | Linares 2 | 31-08-2026 06:45 | 8,9 | 90 | 0 | 0 | 75 | 0 | 1014,4 |
| 27 | Linares 2 | 31-08-2026 06:30 | 8,7 | 91 | 0 | 0,3 | 75 | 0 | 1014,2 |
| 26 | Linares 2 | 31-08-2026 06:15 | 8,6 | 91 | 0 | 0 | 72 | 0 | 1014,1 |
| 25 | Linares 2 | 31-08-2026 06:00 | 8,6 | 91 | 0 | 0 | 68 | 0 | 1013,9 |
| 24 | Linares 2 | 31-08-2026 05:45 | 8,5 | 91 | 0 | 0 | 70 | 0 | 1013,8 |
| 23 | Linares 2 | 31-08-2026 05:30 | 8,4 | 91 | 0 | 0 | 68 | 0 | 1013,6 |
| 22 | Linares 2 | 31-08-2026 05:15 | 8,4 | 91 | 0 | 0 | 76 | 0 | 1013,5 |
| 21 | Linares 2 | 31-08-2026 05:00 | 8,3 | 91 | 0 | 0 | 104 | 0 | 1013,2 |
| 20 | Linares 2 | 31-08-2026 04:45 | 8,1 | 91 | 0 | 0 | 116 | 0 | 1013,2 |
| 19 | Linares 2 | 31-08-2026 04:30 | 8,1 | 92 | 0 | 0 | 139 | 0 | 1013,1 |
| 18 | Linares 2 | 31-08-2026 04:15 | 8 | 91 | 0 | 0 | 148 | 0 | 1013,1 |
| 17 | Linares 2 | 31-08-2026 04:00 | 8 | 91 | 0 | 0 | 118 | 0 | 1013,1 |
| 16 | Linares 2 | 31-08-2026 03:45 | 8,3 | 91 | 0 | 0 | 117 | 0 | 1012,8 |
| 15 | Linares 2 | 31-08-2026 03:30 | 8,1 | 91 | 0 | 0 | 122 | 0 | 1012,9 |
| 14 | Linares 2 | 31-08-2026 03:15 | 8,5 | 91 | 0 | 0 | 122 | 0 | 1013,1 |
| 13 | Linares 2 | 31-08-2026 03:00 | 8,7 | 91 | 0 | 0 | 122 | 0 | 1012,9 |
| 12 | Linares 2 | 31-08-2026 02:45 | 8,7 | 91 | 0 | 0 | 125 | 0 | 1012,8 |
| 11 | Linares 2 | 31-08-2026 02:30 | 8,8 | 90 | 0 | 0 | 156 | 0 | 1012,9 |
| 10 | Linares 2 | 31-08-2026 02:15 | 8,5 | 91 | 0 | 0 | 99 | 0 | 1013 |
| 9 | Linares 2 | 31-08-2026 02:00 | 8,3 | 91 | 0 | 0 | 89 | 0 | 1012,8 |
| 8 | Linares 2 | 31-08-2026 01:45 | 8,3 | 90 | 0 | 0 | 89 | 0 | 1012,5 |
| 7 | Linares 2 | 31-08-2026 01:30 | 8,4 | 90 | 0 | 0 | 92 | 0 | 1012,4 |
| 6 | Linares 2 | 31-08-2026 01:15 | 8,5 | 90 | 0 | 0 | 94 | 0 | 1012,4 |
| 5 | Linares 2 | 31-08-2026 01:00 | 4,5 | 44 | 0 | 0 | 94 | 0 | 1012,3 |
| 4 | Linares 2 | 31-08-2026 00:45 | 4,5 | 45 | 0 | 0 | 94 | 0 | 1012,3 |
| 3 | Linares 2 | 31-08-2026 00:30 | 4,5 | 46 | 0 | 0 | 94 | 0 | 1012,3 |
| 2 | Linares 2 | 31-08-2026 00:15 | 4,2 | 46 | 0 | 0 | 94 | 0 | 1012,3 |
| 1 | Linares 2 | 31-08-2026 00:00 | 4,3 | 46 | 0 | 0 | 94 | 0 | 1012,2 |